QPF
0.01 0.01 0.01 0.00 0.01 0.01 0.01 0.00 0.00 0.00 0.00 0.00 0.00 0.00 0.00 0.00 0.00 0.01 0.01 0.00 0.00 0.00 0.00 0.00 0.00 0.00 0.01 0.01 0.01 0.01 0.01 0.00 0.00 0.01 0.01 0.02 0.04 0.05 0.05 0.05 0.05 0.04 0.03 0.02
0.02 0.01 0.00 0.00 0.01 0.01 0.01 0.01 0.00 0.00 0.00 0.00 0.00 0.00 0.00 0.00 0.00 0.00 0.01 0.01 0.00 0.00 0.00 0.00 0.00 0.01 0.01 0.01 0.01 0.01 0.01 0.01 0.01 0.00 0.01 0.02 0.03 0.04 0.05 0.05 0.05 0.05 0.04 0.03
0.02 0.01 0.00 0.00 0.01 0.02 0.01 0.01 0.00 0.00 0.00 0.00 0.00 0.00 0.00 0.00 0.00 0.00 0.00 0.00 0.00 0.00 0.00 0.00 0.00 0.00 0.01 0.01 0.01 0.02 0.01 0.01 0.01 0.01 0.01 0.01 0.02 0.03 0.05 0.05 0.06 0.05 0.05 0.04
0.01 0.01 0.01 0.01 0.01 0.02 0.01 0.00 0.00 0.00 0.01 0.00 0.00 0.00 0.00 0.00 0.00 0.00 0.00 0.00 0.00 0.00 0.00 0.00 0.00 0.00 0.00 0.01 0.01 0.02 0.03 0.03 0.02 0.02 0.01 0.01 0.01 0.02 0.03 0.04 0.05 0.06 0.06 0.04
0.01 0.01 0.01 0.01 0.00 0.01 0.01 0.00 0.00 0.00 0.01 0.01 0.00 0.01 0.00 0.00 0.00 0.00 0.00 0.00 0.00 0.00 0.00 0.00 0.00 0.00 0.00 0.01 0.01 0.02 0.03 0.04 0.04 0.03 0.02 0.02 0.02 0.02 0.02 0.03 0.04 0.04 0.05 0.05
0.01 0.01 0.01 0.01 0.00 0.01 0.01 0.01 0.00 0.00 0.01 0.02 0.00 0.00 0.00 0.00 0.00 0.00 0.00 0.00 0.00 0.00 0.00 0.00 0.00 0.00 0.01 0.01 0.01 0.01 0.02 0.03 0.04 0.05 0.05 0.05 0.04 0.03 0.02 0.03 0.03 0.03 0.04 0.04
0.01 0.01 0.01 0.01 0.01 0.01 0.01 0.02 0.02 0.02 0.03 0.02 0.00 0.00 0.00 0.00 0.00 0.00 0.00 0.00 0.00 0.00 0.00 0.00 0.00 0.01 0.00 0.01 0.01 0.01 0.01 0.02 0.03 0.04 0.05 0.07 0.08 0.07 0.05 0.04 0.04 0.04 0.04 0.04
0.01 0.01 0.01 0.01 0.01 0.01 0.01 0.01 0.02 0.02 0.01 0.01 0.00 0.00 0.00 0.00 0.00 0.00 0.00 0.00 0.00 0.00 0.00 0.00 0.00 0.01 0.01 0.01 0.01 0.01 0.01 0.01 0.02 0.02 0.03 0.03 0.04 0.05 0.06 0.06 0.06 0.05 0.05 0.05
0.02 0.01 0.01 0.01 0.01 0.01 0.01 0.01 0.01 0.02 0.01 0.01 0.00 0.00 0.00 0.00 0.00 0.00 0.00 0.00 0.00 0.01 0.01 0.01 0.01 0.00 0.01 0.01 0.01 0.01 0.01 0.01 0.01 0.01 0.01 0.02 0.02 0.02 0.03 0.03 0.04 0.05 0.05 0.05
0.03 0.02 0.01 0.01 0.01 0.01 0.01 0.01 0.02 0.03 0.03 0.01 0.01 0.00 0.00 0.00 0.00 0.00 0.00 0.00 0.00 0.00 0.01 0.01 0.01 0.01 0.01 0.00 0.00 0.01 0.01 0.01 0.01 0.01 0.01 0.01 0.02 0.02 0.02 0.02 0.03 0.03 0.04 0.04
0.02 0.02 0.02 0.01 0.01 0.02 0.01 0.01 0.02 0.02 0.02 0.02 0.01 0.01 0.00 0.00 0.00 0.00 0.00 0.00 0.00 0.00 0.00 0.00 0.01 0.01 0.01 0.00 0.00 0.01 0.01 0.01 0.01 0.01 0.01 0.01 0.02 0.02 0.02 0.03 0.03 0.03 0.03 0.03
0.01 0.02 0.02 0.01 0.01 0.01 0.02 0.02 0.02 0.03 0.02 0.01 0.01 0.01 0.00 0.00 0.00 0.00 0.00 0.00 0.00 0.00 0.00 0.00 0.00 0.01 0.01 0.01 0.01 0.01 0.01 0.01 0.01 0.01 0.02 0.02 0.02 0.01 0.02 0.02 0.02 0.02 0.02 0.02
0.02 0.02 0.02 0.01 0.01 0.01 0.01 0.02 0.02 0.03 0.03 0.02 0.01 0.00 0.00 0.00 0.00 0.00 0.00 0.01 0.01 0.01 0.01 0.01 0.01 0.01 0.00 0.00 0.01 0.01 0.00 0.01 0.01 0.01 0.01 0.01 0.01 0.01 0.02 0.02 0.02 0.02 0.02 0.02
0.02 0.02 0.01 0.01 0.01 0.01 0.00 0.00 0.01 0.02 0.03 0.01 0.00 0.00 0.00 0.00 0.00 0.00 0.01 0.01 0.01 0.01 0.01 0.01 0.01 0.00 0.00 0.00 0.00 0.00 0.00 0.01 0.01 0.01 0.01 0.01 0.01 0.01 0.01 0.01 0.01 0.02 0.02 0.02
0.02 0.02 0.01 0.00 0.00 0.00 0.00 0.00 0.00 0.01 0.01 0.01 0.00 0.00 0.00 0.00 0.01 0.01 0.01 0.01 0.01 0.01 0.01 0.01 0.01 0.00 0.00 0.00 0.00 0.00 0.00 0.01 0.01 0.01 0.01 0.01 0.01 0.01 0.01 0.01 0.01 0.01 0.01 0.01
0.02 0.02 0.01 0.00 0.00 0.00 0.00 0.00 0.00 0.01 0.00 0.00 0.00 0.00 0.00 0.00 0.00 0.00 0.00 0.01 0.01 0.01 0.01 0.02 0.01 0.00 0.00 0.00 0.00 0.01 0.00 0.00 0.01 0.01 0.01 0.01 0.01 0.01 0.01 0.01 0.01 0.01 0.01 0.01
0.01 0.02 0.02 0.01 0.00 0.01 0.01 0.00 0.00 0.00 0.00 0.00 0.00 0.00 0.00 0.00 0.00 0.00 0.00 0.01 0.01 0.00 0.00 0.01 0.01 0.01 0.01 0.00 0.00 0.00 0.00 0.00 0.00 0.01 0.01 0.01 0.01 0.01 0.01 0.01 0.01 0.01 0.01 0.01
0.01 0.02 0.02 0.02 0.01 0.01 0.00 0.00 0.00 0.00 0.00 0.00 0.00 0.00 0.00 0.00 0.00 0.00 0.01 0.01 0.00 0.00 0.00 0.00 0.00 0.00 0.00 0.00 0.00 0.00 0.00 0.00 0.01 0.01 0.01 0.01 0.01 0.01 0.01 0.01 0.01 0.01 0.00 0.00
0.01 0.02 0.03 0.03 0.02 0.01 0.00 0.00 0.00 0.00 0.00 0.00 0.00 0.00 0.00 0.00 0.00 0.01 0.01 0.00 0.00 0.00 0.00 0.00 0.00 0.00 0.00 0.00 0.00 0.00 0.00 0.00 0.01 0.00 0.00 0.01 0.01 0.01 0.01 0.01 0.00 0.00 0.00 0.00
0.01 0.02 0.04 0.03 0.03 0.01 0.00 0.00 0.00 0.00 0.00 0.00 0.00 0.00 0.00 0.01 0.01 0.00 0.01 0.01 0.01 0.01 0.00 0.00 0.00 0.00 0.00 0.00 0.00 0.00 0.00 0.00 0.01 0.01 0.01 0.01 0.01 0.01 0.01 0.00 0.00 0.00 0.00 0.00
0.02 0.03 0.03 0.02 0.02 0.01 0.01 0.00 0.01 0.01 0.01 0.00 0.00 0.00 0.00 0.00 0.00 0.00 0.01 0.01 0.01 0.00 0.00 0.00 0.00 0.00 0.00 0.00 0.00 0.00 0.00 0.00 0.00 0.01 0.01 0.01 0.01 0.01 0.01 0.00 0.00 0.00 0.00 0.00
0.01 0.02 0.02 0.02 0.03 0.01 0.01 0.01 0.01 0.01 0.00 0.00 0.00 0.00 0.00 0.00 0.00 0.00 0.01 0.01 0.01 0.01 0.01 0.00 0.00 0.00 0.00 0.00 0.00 0.00 0.00 0.00 0.01 0.01 0.01 0.01 0.01 0.01 0.00 0.00 0.00 0.00 0.00 0.00
0.01 0.02 0.02 0.02 0.01 0.01 0.01 0.01 0.01 0.00 0.00 0.00 0.00 0.00 0.00 0.00 0.00 0.00 0.00 0.00 0.00 0.00 0.00 0.00 0.00 0.00 0.00 0.00 0.00 0.00 0.00 0.00 0.01 0.01 0.01 0.01 0.00 0.00 0.00 0.00 0.00 0.00 0.00 0.01
0.01 0.01 0.01 0.01 0.01 0.01 0.01 0.01 0.00 0.00 0.00 0.00 0.00 0.00 0.00 0.00 0.00 0.00 0.01 0.01 0.01 0.00 0.00 0.00 0.00 0.00 0.00 0.00 0.00 0.00 0.00 0.01 0.01 0.01 0.01 0.01 0.00 0.00 0.00 0.00 0.00 0.00 0.01 0.01
0.01 0.00 0.00 0.01 0.00 0.00 0.00 0.01 0.01 0.00 0.00 0.00 0.00 0.00 0.00 0.00 0.00 0.00 0.01 0.01 0.01 0.00 0.00 0.00 0.00 0.00 0.00 0.00 0.00 0.00 0.00 0.01 0.01 0.01 0.01 0.01 0.01 0.00 0.00 0.01 0.01 0.01 0.01 0.01
0.01 0.01 0.01 0.01 0.01 0.00 0.01 0.01 0.01 0.01 0.01 0.00 0.00 0.00 0.00 0.00 0.00 0.00 0.00 0.01 0.01 0.00 0.00 0.00 0.00 0.00 0.01 0.00 0.00 0.00 0.00 0.01 0.01 0.01 0.01 0.01 0.00 0.01 0.01 0.01 0.01 0.00 0.01 0.01
MSLP
1019.36 1019.94 1020.48 1020.94 1021.32 1021.62 1021.86 1022.03 1022.14 1022.17 1022.12 1021.99 1021.76 1021.46 1021.11 1020.73 1020.38 1020.09 1019.90 1019.81 1019.83 1019.95 1020.15 1020.40 1020.67 1020.95 1021.22 1021.51 1021.80 1022.13 1022.50 1022.91 1023.36 1023.83 1024.31 1024.75 1025.14 1025.46 1025.71 1025.88 1025.99 1026.06 1026.10 1026.15
1020.26 1020.78 1021.22 1021.59 1021.89 1022.13 1022.34 1022.51 1022.64 1022.69 1022.66 1022.50 1022.22 1021.83 1021.35 1020.84 1020.35 1019.95 1019.68 1019.56 1019.59 1019.75 1020.01 1020.32 1020.63 1020.92 1021.19 1021.43 1021.68 1021.95 1022.27 1022.66 1023.11 1023.61 1024.12 1024.60 1025.03 1025.37 1025.61 1025.77 1025.85 1025.89 1025.91 1025.95
1021.07 1021.50 1021.85 1022.13 1022.37 1022.59 1022.80 1023.00 1023.17 1023.26 1023.23 1023.05 1022.71 1022.20 1021.58 1020.92 1020.29 1019.77 1019.41 1019.26 1019.30 1019.51 1019.82 1020.19 1020.54 1020.85 1021.10 1021.31 1021.50 1021.72 1022.00 1022.37 1022.82 1023.33 1023.87 1024.39 1024.84 1025.20 1025.45 1025.59 1025.66 1025.68 1025.70 1025.73
1021.68 1022.01 1022.28 1022.50 1022.72 1022.95 1023.21 1023.48 1023.72 1023.86 1023.85 1023.64 1023.22 1022.59 1021.82 1020.99 1020.21 1019.56 1019.12 1018.92 1018.97 1019.20 1019.57 1019.98 1020.37 1020.70 1020.94 1021.11 1021.26 1021.43 1021.67 1022.01 1022.46 1022.98 1023.54 1024.09 1024.58 1024.96 1025.22 1025.38 1025.44 1025.46 1025.48 1025.52
1022.04 1022.29 1022.50 1022.70 1022.93 1023.23 1023.58 1023.95 1024.28 1024.49 1024.51 1024.27 1023.76 1023.00 1022.07 1021.07 1020.13 1019.35 1018.82 1018.57 1018.60 1018.86 1019.26 1019.71 1020.12 1020.46 1020.69 1020.83 1020.94 1021.06 1021.26 1021.58 1022.01 1022.55 1023.13 1023.71 1024.23 1024.64 1024.94 1025.11 1025.20 1025.24 1025.27 1025.34
1022.17 1022.36 1022.53 1022.75 1023.05 1023.44 1023.92 1024.42 1024.86 1025.15 1025.19 1024.91 1024.32 1023.43 1022.35 1021.18 1020.08 1019.16 1018.53 1018.23 1018.23 1018.49 1018.91 1019.37 1019.80 1020.13 1020.35 1020.46 1020.52 1020.61 1020.77 1021.06 1021.48 1022.02 1022.62 1023.23 1023.79 1024.25 1024.59 1024.80 1024.94 1025.02 1025.09 1025.18
1022.13 1022.28 1022.47 1022.74 1023.14 1023.66 1024.27 1024.91 1025.46 1025.81 1025.86 1025.55 1024.86 1023.85 1022.62 1021.30 1020.05 1019.01 1018.29 1017.91 1017.88 1018.12 1018.54 1019.00 1019.43 1019.74 1019.93 1020.00 1020.03 1020.07 1020.20 1020.46 1020.87 1021.40 1022.02 1022.66 1023.26 1023.77 1024.16 1024.45 1024.64 1024.78 1024.90 1025.03
1022.02 1022.17 1022.40 1022.76 1023.28 1023.93 1024.68 1025.43 1026.06 1026.45 1026.49 1026.12 1025.34 1024.21 1022.84 1021.39 1020.02 1018.88 1018.07 1017.64 1017.57 1017.78 1018.17 1018.61 1019.01 1019.30 1019.44 1019.48 1019.46 1019.46 1019.55 1019.78 1020.17 1020.70 1021.33 1022.00 1022.64 1023.20 1023.66 1024.02 1024.29 1024.50 1024.68 1024.85
1021.94 1022.14 1022.45 1022.91 1023.53 1024.30 1025.14 1025.96 1026.62 1026.99 1026.99 1026.55 1025.67 1024.43 1022.95 1021.40 1019.94 1018.73 1017.87 1017.39 1017.28 1017.46 1017.81 1018.22 1018.57 1018.81 1018.92 1018.91 1018.84 1018.80 1018.85 1019.05 1019.42 1019.94 1020.57 1021.26 1021.94 1022.55 1023.08 1023.51 1023.86 1024.14 1024.39 1024.62
1022.00 1022.27 1022.66 1023.21 1023.91 1024.75 1025.63 1026.44 1027.06 1027.37 1027.28 1026.73 1025.76 1024.43 1022.87 1021.26 1019.77 1018.53 1017.64 1017.14 1017.00 1017.15 1017.46 1017.82 1018.12 1018.31 1018.36 1018.31 1018.20 1018.12 1018.14 1018.31 1018.65 1019.15 1019.78 1020.48 1021.18 1021.84 1022.43 1022.93 1023.35 1023.70 1024.01 1024.29
1022.23 1022.58 1023.05 1023.65 1024.39 1025.22 1026.05 1026.78 1027.29 1027.47 1027.24 1026.58 1025.51 1024.11 1022.53 1020.92 1019.44 1018.22 1017.36 1016.87 1016.72 1016.84 1017.11 1017.42 1017.67 1017.81 1017.81 1017.71 1017.57 1017.45 1017.44 1017.59 1017.91 1018.39 1019.01 1019.71 1020.42 1021.11 1021.73 1022.29 1022.77 1023.18 1023.55 1023.88
1022.60 1023.02 1023.54 1024.15 1024.85 1025.60 1026.30 1026.88 1027.21 1027.21 1026.82 1026.04 1024.89 1023.47 1021.90 1020.34 1018.93 1017.79 1016.99 1016.55 1016.41 1016.52 1016.76 1017.02 1017.22 1017.31 1017.27 1017.14 1016.98 1016.84 1016.82 1016.94 1017.24 1017.71 1018.31 1018.99 1019.70 1020.40 1021.05 1021.63 1022.16 1022.62 1023.03 1023.40
1023.05 1023.51 1024.02 1024.59 1025.19 1025.77 1026.28 1026.63 1026.74 1026.53 1025.98 1025.09 1023.89 1022.49 1021.00 1019.55 1018.27 1017.26 1016.56 1016.18 1016.08 1016.19 1016.40 1016.62 1016.78 1016.82 1016.76 1016.61 1016.44 1016.31 1016.28 1016.40 1016.69 1017.14 1017.71 1018.37 1019.07 1019.76 1020.42 1021.03 1021.57 1022.07 1022.51 1022.91
1023.47 1023.93 1024.38 1024.84 1025.27 1025.64 1025.91 1026.00 1025.86 1025.46 1024.76 1023.79 1022.60 1021.27 1019.90 1018.62 1017.51 1016.65 1016.08 1015.79 1015.74 1015.85 1016.04 1016.23 1016.34 1016.36 1016.28 1016.13 1015.97 1015.86 1015.85 1015.98 1016.27 1016.70 1017.26 1017.90 1018.57 1019.25 1019.90 1020.51 1021.07 1021.58 1022.04 1022.45
1023.78 1024.17 1024.52 1024.81 1025.03 1025.16 1025.16 1025.00 1024.63 1024.05 1023.25 1022.26 1021.12 1019.91 1018.72 1017.63 1016.73 1016.05 1015.62 1015.42 1015.41 1015.52 1015.68 1015.83 1015.91 1015.90 1015.82 1015.69 1015.56 1015.48 1015.51 1015.67 1015.97 1016.40 1016.94 1017.56 1018.21 1018.87 1019.51 1020.11 1020.67 1021.19 1021.66 1022.08
1023.89 1024.18 1024.37 1024.47 1024.46 1024.34 1024.09 1023.70 1023.15 1022.45 1021.60 1020.64 1019.61 1018.57 1017.59 1016.72 1016.02 1015.52 1015.22 1015.09 1015.11 1015.20 1015.33 1015.43 1015.47 1015.45 1015.37 1015.27 1015.18 1015.16 1015.23 1015.43 1015.76 1016.20 1016.74 1017.35 1017.98 1018.62 1019.24 1019.83 1020.39 1020.91 1021.38 1021.80
1023.79 1023.93 1023.94 1023.83 1023.60 1023.25 1022.80 1022.23 1021.56 1020.81 1019.98 1019.11 1018.23 1017.38 1016.61 1015.96 1015.45 1015.10 1014.90 1014.82 1014.83 1014.90 1014.97 1015.02 1015.02 1014.98 1014.91 1014.84 1014.81 1014.85 1014.99 1015.25 1015.61 1016.08 1016.62 1017.22 1017.84 1018.47 1019.08 1019.66 1020.21 1020.73 1021.19 1021.61
1023.47 1023.43 1023.26 1022.95 1022.53 1022.01 1021.41 1020.74 1020.02 1019.28 1018.52 1017.78 1017.07 1016.43 1015.86 1015.40 1015.05 1014.81 1014.66 1014.60 1014.58 1014.59 1014.59 1014.58 1014.54 1014.48 1014.43 1014.41 1014.44 1014.55 1014.76 1015.07 1015.48 1015.98 1016.54 1017.14 1017.76 1018.37 1018.97 1019.55 1020.09 1020.60 1021.05 1021.45
1022.95 1022.74 1022.40 1021.93 1021.37 1020.73 1020.05 1019.34 1018.64 1017.96 1017.32 1016.73 1016.19 1015.73 1015.34 1015.02 1014.78 1014.60 1014.47 1014.38 1014.31 1014.25 1014.18 1014.10 1014.03 1013.97 1013.94 1013.96 1014.05 1014.23 1014.51 1014.88 1015.35 1015.87 1016.45 1017.06 1017.68 1018.29 1018.88 1019.45 1019.99 1020.47 1020.91 1021.28
1022.25 1021.90 1021.43 1020.85 1020.19 1019.50 1018.80 1018.11 1017.48 1016.89 1016.38 1015.93 1015.55 1015.23 1014.96 1014.74 1014.55 1014.39 1014.25 1014.11 1013.98 1013.84 1013.71 1013.59 1013.49 1013.44 1013.43 1013.51 1013.66 1013.91 1014.26 1014.69 1015.19 1015.75 1016.35 1016.96 1017.58 1018.19 1018.78 1019.33 1019.85 1020.32 1020.73 1021.06
1021.41 1020.95 1020.38 1019.74 1019.05 1018.36 1017.69 1017.07 1016.51 1016.03 1015.63 1015.30 1015.03 1014.81 1014.61 1014.44 1014.27 1014.10 1013.93 1013.74 1013.55 1013.36 1013.19 1013.04 1012.95 1012.91 1012.95 1013.08 1013.29 1013.60 1014.00 1014.48 1015.02 1015.60 1016.21 1016.83 1017.45 1018.06 1018.63 1019.17 1019.67 1020.11 1020.48 1020.76
1020.43 1019.90 1019.29 1018.64 1017.96 1017.31 1016.70 1016.15 1015.69 1015.30 1014.98 1014.73 1014.52 1014.35 1014.18 1014.02 1013.84 1013.65 1013.43 1013.21 1012.99 1012.79 1012.61 1012.47 1012.40 1012.41 1012.50 1012.68 1012.96 1013.32 1013.76 1014.27 1014.83 1015.43 1016.05 1016.67 1017.29 1017.88 1018.45 1018.97 1019.44 1019.84 1020.16 1020.40
1019.34 1018.79 1018.18 1017.55 1016.93 1016.34 1015.80 1015.32 1014.92 1014.59 1014.32 1014.10 1013.91 1013.74 1013.56 1013.38 1013.19 1012.98 1012.75 1012.53 1012.32 1012.13 1011.99 1011.90 1011.88 1011.95 1012.10 1012.34 1012.66 1013.06 1013.53 1014.06 1014.63 1015.23 1015.85 1016.47 1017.08 1017.67 1018.22 1018.72 1019.16 1019.53 1019.80 1019.98
1018.19 1017.65 1017.08 1016.51 1015.95 1015.43 1014.95 1014.53 1014.17 1013.85 1013.58 1013.35 1013.13 1012.93 1012.73 1012.52 1012.32 1012.11 1011.90 1011.72 1011.55 1011.43 1011.36 1011.35 1011.40 1011.54 1011.75 1012.03 1012.39 1012.81 1013.29 1013.83 1014.40 1014.99 1015.61 1016.23 1016.83 1017.42 1017.95 1018.44 1018.85 1019.18 1019.42 1019.55
1017.07 1016.56 1016.06 1015.55 1015.07 1014.60 1014.17 1013.77 1013.40 1013.07 1012.76 1012.47 1012.20 1011.95 1011.71 1011.49 1011.28 1011.10 1010.95 1010.83 1010.76 1010.73 1010.75 1010.83 1010.97 1011.16 1011.42 1011.74 1012.11 1012.54 1013.01 1013.54 1014.10 1014.69 1015.30 1015.92 1016.53 1017.11 1017.64 1018.12 1018.51 1018.81 1019.01 1019.11
1016.07 1015.63 1015.20 1014.77 1014.34 1013.92 1013.50 1013.08 1012.68 1012.28 1011.89 1011.53 1011.19 1010.88 1010.61 1010.38 1010.20 1010.08 1010.00 1009.98 1010.01 1010.08 1010.21 1010.37 1010.58 1010.82 1011.10 1011.43 1011.79 1012.20 1012.66 1013.16 1013.71 1014.30 1014.91 1015.53 1016.14 1016.73 1017.28 1017.75 1018.14 1018.42 1018.60 1018.67
Thickness
5539 5531 5529 5535 5540 5544 5544 5543 5542 5547 5554 5553 5552 5557 5564 5566 5566 5567 5569 5570 5572 5573 5575 5576 5575 5574 5573 5572 5571 5571 5570 5570 5570 5569 5569 5568 5568 5567 5567 5567 5567 5567 5566 5567
5522 5522 5532 5535 5537 5537 5535 5533 5533 5538 5544 5544 5543 5548 5556 5559 5562 5566 5566 5566 5566 5565 5565 5566 5566 5564 5564 5563 5562 5562 5561 5561 5561 5561 5560 5559 5558 5557 5557 5557 5557 5556 5556 5557
5517 5523 5530 5529 5527 5527 5525 5523 5525 5527 5531 5533 5534 5536 5546 5553 5558 5562 5562 5561 5560 5560 5558 5557 5557 5556 5554 5553 5553 5554 5553 5552 5551 5550 5549 5547 5546 5546 5545 5545 5546 5546 5547 5546
5509 5517 5521 5520 5518 5520 5517 5521 5522 5521 5515 5508 5516 5512 5533 5541 5547 5552 5552 5551 5552 5553 5552 5550 5549 5547 5546 5545 5544 5544 5543 5543 5542 5541 5539 5537 5537 5536 5535 5535 5534 5535 5535 5535
5503 5509 5511 5511 5512 5514 5511 5514 5513 5511 5503 5496 5499 5500 5517 5527 5535 5543 5544 5543 5544 5545 5545 5543 5542 5540 5538 5536 5534 5533 5533 5533 5532 5531 5529 5527 5526 5526 5525 5524 5523 5523 5523 5523
5498 5503 5505 5506 5507 5507 5505 5502 5496 5488 5483 5482 5492 5491 5505 5515 5528 5534 5536 5536 5536 5536 5535 5534 5532 5530 5527 5525 5524 5523 5523 5522 5521 5520 5519 5517 5516 5515 5514 5513 5512 5512 5512 5512
5488 5493 5497 5499 5497 5497 5494 5482 5471 5469 5463 5474 5488 5486 5499 5515 5520 5523 5525 5526 5525 5524 5523 5522 5521 5519 5518 5516 5514 5513 5513 5512 5511 5509 5508 5507 5506 5505 5504 5504 5503 5502 5502 5502
5476 5478 5487 5489 5490 5486 5484 5479 5467 5466 5464 5470 5479 5478 5496 5508 5511 5513 5514 5514 5513 5513 5512 5512 5511 5509 5508 5506 5505 5504 5503 5502 5500 5499 5498 5497 5496 5494 5494 5494 5494 5494 5493 5493
5468 5473 5481 5484 5485 5484 5477 5470 5472 5460 5454 5455 5467 5476 5491 5501 5501 5502 5502 5501 5500 5501 5501 5500 5500 5499 5497 5496 5495 5495 5493 5492 5491 5489 5488 5487 5485 5484 5484 5484 5484 5484 5483 5482
5465 5459 5467 5472 5477 5475 5473 5468 5457 5453 5452 5455 5462 5466 5479 5488 5491 5491 5490 5489 5490 5490 5490 5489 5489 5488 5487 5486 5485 5484 5483 5482 5481 5480 5479 5478 5476 5475 5475 5474 5474 5473 5472 5472
5459 5451 5451 5456 5459 5460 5462 5458 5455 5446 5446 5449 5452 5469 5482 5483 5484 5483 5482 5480 5479 5479 5479 5479 5478 5478 5477 5475 5474 5473 5472 5472 5471 5470 5470 5468 5467 5466 5465 5463 5463 5462 5461 5461
5449 5439 5436 5442 5449 5451 5453 5453 5445 5443 5438 5434 5433 5458 5479 5474 5474 5474 5473 5473 5471 5470 5469 5469 5469 5468 5466 5464 5463 5463 5463 5462 5462 5461 5460 5459 5457 5456 5454 5453 5453 5452 5451 5450
5442 5431 5431 5438 5439 5438 5439 5442 5437 5432 5428 5423 5430 5455 5468 5464 5463 5464 5462 5461 5461 5461 5460 5459 5458 5457 5456 5455 5454 5453 5453 5453 5452 5451 5450 5449 5447 5446 5445 5444 5443 5442 5441 5441
5439 5424 5428 5437 5438 5431 5429 5431 5427 5424 5424 5424 5431 5447 5456 5455 5454 5454 5453 5452 5451 5451 5451 5450 5448 5447 5446 5445 5444 5444 5444 5443 5443 5442 5441 5439 5438 5437 5436 5435 5434 5433 5432 5431
5429 5419 5417 5420 5425 5423 5425 5427 5421 5419 5424 5426 5435 5436 5450 5448 5447 5447 5444 5443 5443 5443 5442 5442 5440 5438 5438 5437 5436 5436 5436 5435 5434 5433 5432 5431 5430 5428 5427 5426 5425 5425 5424 5423
5414 5410 5408 5413 5416 5413 5416 5421 5420 5419 5420 5420 5425 5432 5442 5440 5437 5436 5435 5434 5434 5434 5434 5433 5433 5431 5430 5429 5428 5427 5427 5426 5425 5424 5423 5422 5421 5420 5418 5417 5417 5416 5415 5415
5401 5400 5402 5406 5405 5407 5413 5422 5418 5416 5415 5417 5424 5437 5434 5431 5432 5430 5428 5428 5427 5426 5426 5425 5425 5424 5423 5421 5421 5419 5419 5418 5417 5416 5415 5414 5412 5411 5410 5409 5408 5408 5407 5406
5395 5392 5387 5390 5394 5403 5427 5422 5420 5418 5417 5415 5420 5424 5425 5425 5424 5421 5421 5420 5418 5418 5418 5417 5417 5416 5415 5414 5412 5412 5411 5409 5409 5408 5406 5405 5404 5403 5402 5401 5400 5399 5399 5398
5394 5390 5381 5380 5387 5398 5416 5418 5411 5408 5412 5414 5413 5416 5416 5415 5412 5413 5415 5414 5412 5411 5410 5409 5408 5407 5406 5405 5404 5403 5402 5401 5400 5400 5399 5398 5397 5395 5394 5393 5392 5392 5391 5390
5382 5381 5378 5376 5387 5397 5418 5416 5408 5406 5407 5414 5407 5408 5407 5405 5404 5412 5412 5409 5406 5404 5403 5401 5400 5398 5397 5397 5396 5394 5394 5393 5393 5393 5392 5391 5390 5388 5387 5386 5385 5385 5384 5383
5376 5373 5373 5375 5378 5393 5407 5404 5402 5401 5411 5411 5404 5402 5401 5399 5403 5405 5402 5400 5399 5397 5395 5394 5391 5390 5389 5388 5387 5386 5386 5385 5386 5385 5385 5384 5382 5381 5380 5379 5378 5377 5376 5376
5375 5371 5368 5369 5374 5394 5401 5395 5397 5405 5405 5402 5399 5396 5394 5394 5395 5394 5394 5393 5392 5389 5388 5387 5384 5382 5381 5380 5379 5379 5378 5379 5378 5377 5376 5376 5375 5373 5373 5371 5370 5370 5369 5368
5371 5379 5377 5380 5394 5398 5393 5395 5397 5395 5395 5395 5393 5392 5389 5388 5387 5387 5386 5385 5384 5382 5381 5379 5377 5375 5374 5373 5372 5372 5372 5371 5370 5369 5368 5367 5366 5365 5365 5364 5363 5362 5362 5361
5367 5370 5370 5372 5384 5388 5388 5389 5389 5388 5389 5390 5388 5386 5383 5381 5380 5379 5378 5377 5376 5375 5373 5371 5369 5368 5367 5367 5366 5366 5366 5364 5363 5362 5361 5360 5358 5358 5357 5357 5356 5356 5357 5356
5371 5363 5364 5368 5377 5381 5387 5385 5386 5385 5384 5383 5381 5379 5377 5375 5373 5372 5371 5370 5369 5368 5366 5364 5363 5362 5362 5361 5361 5360 5360 5358 5357 5356 5355 5354 5353 5352 5351 5351 5351 5352 5353 5353
5365 5365 5368 5378 5381 5379 5383 5383 5381 5379 5378 5377 5375 5372 5370 5368 5367 5366 5364 5364 5362 5361 5359 5358 5357 5356 5356 5355 5355 5355 5354 5353 5351 5350 5349 5349 5347 5346 5345 5345 5345 5346 5347 5348